Fort Simpson, Northwest Territories

8:58 AM MST on December 14, 2017 (GMT -0700)
Fort Simpson

Weather History for CZFS - December, 2013

Change the Weather History Date:

Friday, December 27, 2013

  Actual Average (CYFS) Record (CYFS)
Temperature  
Mean Temperature -32 °F -  
Max Temperature -23 °F -1 °F 77 °F (2014)
Min Temperature -42 °F -12 °F -41 °F (2013)
Degree Days  
Heating Degree Days 98    
Moisture  
Dew Point -44 °F    
Average Humidity 65    
Maximum Humidity 74    
Minimum Humidity 46    
Precipitation  
Precipitation 0.01 in - - ()
Sea Level Pressure  
Sea Level Pressure 30.62 in    
Wind  
Wind Speed 2 mph ()    
Max Wind Speed 8 mph    
Max Gust Speed -    
Averages and records for this station are not official NWS values.
T = Trace of Precipitation, MM = Missing Value Source: Averaged Metar Reports

Daily Weather History Graph

Daily Weather History Graph

Search for Another Location

Airport or City:

Trip Planner

Search our weather history database for the weather conditions in past years. The results will help you decide how hot, cold, wet, or windy it might be!

Date:

Astronomy

Dec. 27, 2013 Rise Set
Actual Time 10:27 AM MST 3:45 PM MST
Civil Twilight 9:22 AM MST 4:49 PM MST
Nautical Twilight 8:21 AM MST 5:50 PM MST
Astronomical Twilight 7:26 AM MST 6:45 PM MST
Moon 3:55 AM MST (12/27) 1:01 PM MST (12/27)
Length of Visible Light 7h 27m
Length of Day
5h 18m
Waning Crescent, 28% of the Moon is Illuminated
Dec 27
Waning Crescent
Jan 1
New
Jan 7
First Quarter
Jan 15
Full
Jan 23
Last Quarter

Hourly Weather History & Observations

Time (MST) Temp. Windchill Dew Point Humidity Pressure Visibility Wind Dir Wind Speed Gust Speed Precip Events Conditions
12:00 AM -28.8 °F - -35.0 °F 72% 30.45 in - WSW 1.2 mph - 0.01 in   Unknown
1:00 AM -31.7 °F - -37.8 °F 72% 30.46 in - NNW 1.2 mph - N/A   Unknown
2:00 AM -33.2 °F -48.6 °F -39.1 °F 73% 30.48 in - NW 4.6 mph - N/A   Unknown
3:00 AM -30.1 °F -49.2 °F -35.7 °F 74% 30.50 in - NNW 6.9 mph - N/A   Unknown
4:00 AM -31.7 °F -52.8 °F -38.0 °F 71% 30.51 in - NNW 8.1 mph - N/A   Unknown
5:00 AM -32 °F - -38 °F 55% 30.53 in - NNW 4.6 mph - -  
5:00 AM -32.1 °F -47.3 °F -38.4 °F 71% 30.53 in - NNW 4.6 mph - N/A   Unknown
6:00 AM -33.9 °F -46.6 °F -40.4 °F 71% 30.53 in - NW 3.5 mph - N/A   Unknown
7:00 AM -36.4 °F - -43.4 °F 68% 30.55 in - Calm Calm - N/A   Unknown
8:00 AM -38.6 °F - -45.8 °F 67% 30.56 in - NNW 1.2 mph - N/A   Unknown
9:00 AM -38.4 °F - -45.4 °F 68% 30.58 in - Calm Calm - N/A   Unknown
10:00 AM -40.0 °F - -47.4 °F 66% 30.60 in - Calm Calm - N/A   Unknown
11:00 AM -40 °F - -48 °F 46% 30.63 in - West 1.2 mph - -  
11:00 AM -40.2 °F - -47.6 °F 66% 30.63 in - West 1.2 mph - N/A   Unknown
12:00 PM -37.3 °F - -45.9 °F 62% 30.64 in - Calm Calm - N/A   Unknown
1:00 PM -36.4 °F - -43.2 °F 69% 30.65 in - Calm Calm - N/A   Unknown
2:00 PM -36.0 °F -49.0 °F -42.9 °F 69% 30.66 in - NW 3.5 mph - N/A   Unknown
3:00 PM -33.0 °F -45.5 °F -39.6 °F 70% 30.66 in - NNW 3.5 mph - N/A   Unknown
4:00 PM -36.2 °F - -43.4 °F 67% 30.68 in - Calm Calm - N/A   Unknown
5:00 PM -39 °F - -46 °F 48% 30.70 in - Calm Calm - -  
5:00 PM -37.3 °F - -46.3 °F 61% 30.70 in - Calm Calm - N/A   Unknown
6:00 PM -40.2 °F - -47.6 °F 66% 30.70 in - Calm Calm - N/A   Unknown
7:00 PM -40.4 °F - -47.9 °F 66% 30.71 in - Calm Calm - N/A   Unknown
8:00 PM -41.1 °F - -48.8 °F 65% 30.73 in - Calm Calm - N/A   Unknown
9:00 PM -42.0 °F - -49.5 °F 65% 30.73 in - Calm Calm - N/A   Unknown
10:00 PM -41.6 °F - -49.2 °F 65% 30.73 in - SSE 1.2 mph - N/A   Unknown
11:00 PM -42 °F - -49 °F 47% 30.73 in - SE 1.2 mph - -  
11:00 PM -41.8 °F - -49.4 °F 65% 30.73 in - SE 1.2 mph - N/A   Unknown